User: anonymous   Login
Location: Unspecified
(0.0000°N, 0.0000°E)
Time: 11:23:46
(UTC+01:00)
Language:

Ariane 42L R/B - Orbit

View from above orbital plane
View from above orbital plane
View from above satellite
View from above satellite

Ground track
Ground track

The orbit data is extracted from the following two-line orbital elements,

1 26299U 00020B   17320.58505038 +.00002975 +00000-0 +86007-3 0  9994
2 26299 007.4089 174.2007 5931450 126.8431 303.5110 04.12012089225202
Epoch (UTC): 16 November 2017 14:02:28
Eccentricity: 0.5931450
inclination: 7.4089°
perigee height: 309 km
apogee height: 19806 km
right ascension of ascending node: 174.2007°
argument of perigee: 126.8431°
revolutions per day: 4.12012089
mean anomaly at epoch: 303.5110°
orbit number at epoch: 22520

The dashed part of the orbit path shows where the satellite is in the earth's shadow,  

DLR